Find Starlink 5562

NORAD ID: 56336 Int'l Des: 2023-058 Owner: SPXS Country: US Constellation: starlink operational
LEOCIRCULARRETROGRADESSO

实时位置

正在加载3D地球...

关于 Starlink 5562

正在加载描述...

即将过境

Passes for default location (London). Set your location on the main map for personalized predictions.

高度历史

Loading altitude history...

两行轨道根数

1 56336U 23058V 26126.43425718 -.00000543 00000-0 -33484-4 0 9992
2 56336 97.5327 126.9552 0001398 80.5883 279.5502 15.05648055166812
Epoch: May 6, 2026 • Age: 16 hours

当前状态

高度 555.1 km
速度 7.58 km/s
星下点 -12.65°S, 130.39°W
发射日期 Apr 27, 2023
运行时间 3 years
类型 internet

技术详情

分类 Payload
质量 300.00 kg
干质量 260.00 kg
总质量 300.00 kg
长度 0.20 m
直径 2.80 m
跨度 9.00 m
形状 Box + pan
制造商 SPXS
平台类型 Starlink
阶段状态 In Orbit
所有者/国家 SPXS/US

Most Searched